Погода в Сен-Луи

Сенегал     15°56′47″N   16°28′00″W
темп.,
°C
ветер,
м/с
пор.,
м/с
влажн.,
%
обл.,
%
осадки,
мм/ч
давл.,
гПа
погр.,
м
13 мая, чт
чт1300:00+21з3481100 0.0 101474
03:00+21юз568381 0.0 1013100
06:00+20зсз348610 0.0 101253
09:00+22сз44746 0.0 1013119
12:00+24з526362 0.0 1013418
15:00+23зсз577032 0.0 1010139
18:00+22зсз696926 0.0 1008161
21:00+22сз59745 0.0 1010147
14 мая, пт
пт1400:00+23с716635 0.0 1010248
03:00+22с7146796 0.0 1008230
06:00+22с6106232 0.0 1009127
09:00+26ссв7114240 0.0 1011263
12:00+28ссз710445 0.0 1010669
15:00+25ссз1014565 0.0 1008273
18:00+24ссз1015610 0.0 1008203
21:00+22с916660 0.0 1010195
15 мая, сб
сб1500:00+22с916674 0.0 1010210
03:00+21с1118770 0.0 1008245
06:00+20с9167970 0.0 1009261
09:00+23ссв6964100 0.0 1011270
12:00+25сз535724 0.0 1012491
15:00+22сз8870100 0.0 1010205
18:00+22сз812765 0.0 1010211
21:00+21ссз814812 0.0 1011210
16 мая, вс
вс1600:00+21с5117914 0.0 1012239
03:00+20с8148394 0.0 1010263
06:00+20ссз81386100 0.0 1010271
09:00+21с5877100 0.0 1013313
12:00+23сз657030 0.0 1014400
15:00+23сз78746 0.0 1011250
18:00+22сз79786 0.0 1010217
21:00+21ссз61083100 0.0 1012186
17 мая, пн
пн1700:00+20ссз71382100 0.0 1012232
03:00+21с7148197 0.0 1011261
06:00+21с81476100 0.0 1011249
09:00+22с6107499 0.0 1013277
12:00+24с796684 0.0 1012293
15:00+23сз8107034 0.0 1010290
18:00+22ссз812736 0.0 1009226
21:00+22ссз8147593 0.0 1010199